Vorticity
nan nan nan nan nan nan nan nan nan nan nan nan nan nan nan nan nan nan nan nan nan nan nan nan nan nan nan nan nan nan nan nan nan nan nan nan nan nan nan nan nan nan nan
nan 11 8 4 5 4 7 10 5 6 6 6 6 5 6 10 11 8 6 6 5 7 6 7 6 6 5 5 6 6 6 4 5 6 4 5 6 7 7 8 8 7 nan
nan 10 7 5 5 3 6 9 8 5 4 5 5 5 6 7 8 13 12 7 6 7 7 7 6 7 6 6 6 6 5 4 3 5 6 7 6 7 6 7 8 8 nan
nan 7 8 6 4 5 3 5 9 6 6 5 6 10 10 3 -0 1 10 15 8 7 8 6 7 7 7 6 6 6 4 3 3 6 8 7 6 5 6 7 7 6 nan
nan 5 7 7 4 5 4 4 7 7 6 5 7 10 8 3 3 3 3 9 12 15 10 8 7 6 5 5 8 5 4 2 5 9 7 6 7 7 6 7 5 5 nan
nan 6 7 7 5 4 5 3 3 6 6 7 7 8 7 3 2 1 -0 7 16 18 17 13 7 4 3 4 6 5 4 4 6 7 6 7 8 9 6 6 6 7 nan
nan 5 9 8 7 5 4 4 4 5 6 7 9 11 9 6 2 3 9 10 16 13 13 11 9 7 6 5 4 5 1 4 7 5 7 8 10 7 5 7 8 8 nan
nan 6 9 11 9 9 8 7 7 7 7 7 13 12 13 13 14 13 5 3 13 9 6 5 5 5 5 7 6 4 5 5 5 5 8 8 12 9 8 6 6 7 nan
nan 8 11 12 9 9 9 7 12 15 14 14 16 20 17 11 12 17 15 13 5 2 2 4 4 5 6 5 5 6 6 8 7 7 6 8 10 7 6 6 6 4 nan
nan 6 6 10 10 5 8 13 17 18 19 16 9 15 11 4 -5 17 43 34 9 6 6 6 6 4 7 6 6 6 4 5 7 7 6 12 7 5 5 5 5 6 nan
nan 6 5 5 7 9 10 13 11 10 7 1 3 3 3 4 1 10 25 21 14 15 12 9 7 4 1 0 2 4 3 5 5 6 7 12 7 4 4 5 5 6 nan
nan 5 6 6 5 6 7 7 2 0 2 2 5 5 7 5 4 -2 -4 -2 2 14 8 2 -0 -4 -2 2 4 4 7 8 6 8 10 8 7 6 5 5 5 6 nan
nan 6 7 5 6 5 6 5 4 6 6 5 5 7 7 5 7 3 2 -1 -1 1 2 1 1 2 6 9 9 7 9 7 7 7 9 8 7 6 6 4 6 6 nan
nan 7 6 6 5 4 6 7 8 8 7 6 6 8 5 7 8 8 8 6 7 4 8 7 7 9 8 10 8 8 8 8 9 6 4 8 7 7 6 5 6 6 nan
nan 8 7 6 4 5 5 7 8 7 7 7 7 7 8 8 7 7 7 7 7 8 7 7 8 8 8 7 7 7 7 8 9 9 5 4 8 7 6 7 6 6 nan
nan 8 7 6 5 5 5 8 7 8 8 7 7 8 8 8 7 7 8 7 7 7 9 10 10 9 7 7 8 7 7 7 7 9 7 2 4 6 8 8 7 6 nan
nan 7 7 6 7 6 6 7 7 7 7 7 7 8 7 7 7 7 7 8 8 9 9 9 8 8 7 7 6 6 6 7 7 7 7 6 2 3 7 8 8 7 nan
nan 7 5 8 8 5 6 6 8 8 7 7 7 7 7 8 7 6 7 7 8 9 8 8 6 7 7 7 5 6 6 6 6 6 8 8 7 5 4 7 8 8 nan
nan 8 6 8 7 6 5 7 9 7 7 7 8 8 8 6 6 8 9 9 7 7 9 8 10 9 7 6 7 7 6 6 6 6 7 7 8 9 4 4 6 5 nan
nan 8 6 9 10 5 3 6 7 8 8 8 8 10 8 7 7 7 8 9 7 8 8 9 8 9 8 7 5 6 7 8 8 8 6 6 6 6 7 4 4 5 nan
nan 9 8 7 7 4 5 5 7 9 7 8 10 10 7 8 7 6 7 8 8 9 10 8 6 5 5 3 2 3 6 8 8 7 7 7 7 7 7 6 7 6 nan
nan 9 8 7 6 4 6 7 9 10 10 9 9 9 9 8 7 8 8 7 8 8 9 7 4 2 6 5 6 6 6 4 7 7 8 8 7 7 6 8 9 8 nan
nan 16 9 10 6 6 5 4 7 7 10 10 10 8 9 9 9 8 8 8 7 7 8 7 7 9 5 6 9 11 11 9 7 7 8 8 8 7 7 7 7 7 nan
nan 18 17 15 9 9 6 8 7 3 4 7 10 10 11 9 8 9 9 8 7 8 9 6 6 9 9 8 5 7 10 12 9 8 8 8 8 8 7 7 7 7 nan
nan 17 24 18 10 9 8 6 5 7 8 11 11 11 7 7 10 10 10 7 7 8 9 8 8 7 8 9 9 8 5 7 10 11 10 8 8 9 8 8 7 7 nan
nan nan nan nan nan nan nan nan nan nan nan nan nan nan nan nan nan nan nan nan nan nan nan nan nan nan nan nan nan nan nan nan nan nan nan nan nan nan nan nan nan nan nan
CAPE
0 0 194 240 363 847 1212 1475 1571 1592 1453 1302 1206 1078 1575 1756 1729 1726 1577 1569 1592 1498 1449 1462 1409 789 1095 1231 1319 1120 1107 1054 985 1031 1206 1248 1363 1047 1022 1099 1290 1014 1301
0 0 216 287 404 637 1437 1486 1627 1598 1290 1241 1241 1280 1259 1399 1575 1550 1582 1654 1493 1326 1289 1396 1131 1146 1426 1322 1252 1137 1162 995 1037 1060 825 827 1200 1431 1049 1150 1030 1048 1134
0 0 158 308 499 605 1009 1425 1586 1344 1307 1232 1089 935 720 824 858 701 901 1489 1629 1516 1379 1445 1673 1332 1276 1258 1308 1050 1127 1098 1010 901 795 988 1097 1434 1256 1395 1410 1347 1022
0 0 64 282 414 556 823 952 1257 1253 1119 1124 1065 865 980 812 203 128 681 912 1376 1464 1463 1503 1578 1305 1231 1148 1277 1066 1103 914 656 557 746 805 899 1328 1216 1213 1351 1155 1036
0 0 11 187 335 445 669 911 1033 1083 1081 1088 926 808 887 679 336 525 552 579 994 1235 1197 1275 1128 1198 1052 991 961 1025 909 604 309 518 729 866 857 988 1091 1181 1139 1026 1232
0 0 0 172 137 517 478 560 884 1009 1018 1039 1038 881 880 465 303 253 184 256 494 875 1154 868 625 315 47 514 810 685 572 239 319 696 697 718 721 915 1039 1072 1318 922 890
0 0 0 15 122 278 339 244 551 921 947 870 902 899 810 829 349 215 475 506 752 858 1149 869 731 765 373 413 805 475 202 68 247 375 495 647 739 909 861 809 670 671 682
0 0 0 63 233 304 412 494 748 835 717 748 694 733 772 732 543 490 406 627 910 841 1211 873 519 317 331 336 230 98 16 0 105 189 511 606 665 643 648 576 515 480 487
0 1 36 96 457 200 11 13 201 458 707 634 327 375 421 433 26 43 216 437 647 461 805 778 535 525 329 221 70 5 0 0 11 110 227 558 555 674 490 343 294 228 151
0 0 0 0 1 1 0 31 397 484 604 119 4 0 2 5 0 41 55 323 623 452 675 716 478 289 138 27 3 0 0 0 0 8 216 347 423 342 148 64 25 39 34
1 0 0 0 0 0 87 120 81 32 7 3 4 1 0 0 1 0 37 112 278 535 512 381 222 67 20 4 0 0 0 0 0 0 76 138 133 70 21 18 20 23 24
2 3 0 0 0 0 0 0 1 0 0 1 1 2 4 3 0 1 1 3 4 45 221 138 21 4 0 0 0 0 0 0 0 2 34 47 26 24 14 8 9 8 7
1 1 2 1 0 0 0 0 0 0 0 1 0 1 0 0 0 0 0 0 0 0 0 0 0 0 0 0 0 0 0 0 0 23 29 51 43 39 26 21 12 17 13
0 0 0 3 0 0 0 0 0 0 0 1 0 1 0 0 0 0 0 0 0 0 0 0 0 0 0 0 0 0 0 0 1 3 14 35 49 43 35 20 17 9 14
1 0 0 1 0 0 0 0 0 0 0 0 0 0 0 0 0 0 0 0 0 0 0 0 0 0 0 0 0 0 0 0 0 0 0 10 34 25 30 21 16 13 13
2 0 0 1 0 0 0 0 0 0 0 0 0 0 0 0 0 0 0 0 0 0 0 0 0 0 0 0 0 0 0 0 0 0 0 0 17 17 17 15 9 15 11
1 2 2 1 0 0 0 0 0 0 0 0 0 0 0 0 0 0 0 0 0 0 0 0 0 0 0 0 0 0 0 0 0 0 0 0 0 11 7 12 11 12 11
2 2 1 1 1 0 0 0 0 0 0 0 0 0 0 0 0 0 0 0 0 0 0 0 0 0 0 0 0 0 0 0 0 0 0 0 0 0 1 5 10 13 12
2 0 0 1 1 0 0 0 0 0 0 0 0 0 0 0 0 0 0 0 0 0 0 0 0 0 0 0 0 0 0 0 0 0 0 0 0 0 0 0 0 1 3
2 0 0 1 1 0 0 0 0 0 0 0 0 0 0 0 0 0 0 0 0 0 0 0 0 0 0 0 0 0 0 0 0 0 0 0 0 0 0 0 0 0 1
1 1 1 0 0 0 0 0 0 0 0 0 0 0 0 0 0 0 0 0 0 0 0 0 0 0 0 0 0 0 0 0 0 0 0 0 0 0 0 0 0 0 0
5 7 2 0 0 0 0 0 0 0 0 0 0 0 0 0 0 0 0 0 0 0 0 0 0 0 0 0 0 0 0 0 0 0 0 0 0 0 0 0 0 0 0
0 14 5 1 0 0 0 0 0 0 0 0 0 0 0 0 0 0 0 0 0 0 0 0 0 0 0 0 0 0 0 0 0 0 0 0 0 0 0 0 0 0 0
1 1 0 0 0 0 0 0 0 0 0 0 0 0 0 0 0 0 0 0 0 0 0 0 0 0 0 0 0 0 0 0 0 0 0 0 0 0 0 0 0 0 0
2 2 1 1 0 0 0 0 0 0 0 0 0 0 0 0 0 0 0 0 0 0 0 0 0 0 0 0 0 0 0 0 0 0 0 0 0 0 0 0 0 0 0
0 1 1 0 0 0 0 0 0 0 0 0 0 0 0 0 0 0 0 0 0 0 0 0 0 0 0 0 0 0 0 0 0 0 0 0 0 0 0 0 0 0 0